Regional Weather Roundup
Issued by NWS Jackson, KY

Home | Current Version | Previous Version | Graphics & Text | Print | Product List | Glossary On
Versions: 1 2 3 4 5 6 7 8 9 10 11 12 13 14 15 16 17 18 19 20 21 22 23 24 25 26 27 28 29 30 31 32 33 34 35 36 37 38 39 40 41 42 43 44 45 46 47 48 49 50
000
ASUS43 KJKL 201110
RWRJKL

EAST KENTUCKY HOURLY WEATHER ROUNDUP
NATIONAL WEATHER SERVICE JACKSON KY
700 AM EDT FRI APR 20 2018

NOTE: "FAIR" INDICATES FEW OR NO CLOUDS BELOW 12,000 FEET WITH
NO SIGNIFICANT WEATHER AND/OR OBSTRUCTIONS TO VISIBILITY.

* THESE REPORTS ARE NOT UNDER NWS QUALITY CONTROL AND MAY NOT
  REPORT WEATHER SUCH AS PRECIPITATION AND FOG.

KYZ079-080-083-085-087-088-110-112-115-119-120-201200
...EASTERN KENTUCKY...

CITY           SKY/WX    TMP DP  RH WIND       PRES   REMARKS
JACKSON          N/A     36  29  75 NE5       30.37R WCI  32
LONDON           N/A     30  29  96 MISG      30.38R
SOMERSET*        N/A     30  30 100 CALM      30.40S FOG
MONTICELLO*      N/A     24  22  91 VRB5      30.40R WCI  18
WILLIAMSBURG*  CLOUDY    28  28 100 CALM      30.38R VSB<1/4
MIDDLESBORO*     N/A     30  30 100 CALM      30.40R
HARLAN APT*    PTSUNNY   29  29 100 CALM      30.37R
PIKE CO APT*     N/A     35  29  80 N5        30.37R WCI  30
BIG SANDY APT*   N/A     34  30  85 NE5       30.39R WCI  30
MOREHEAD APT*    N/A     36  28  75 CALM      30.42R
ASHLAND*         N/A     29  26  89 CALM      30.43R
$$

KYZ035-036-041-042-044-050-067-078-099-201200
...CENTRAL KENTUCKY...

CITY           SKY/WX    TMP DP  RH WIND       PRES   REMARKS
MT STERLING*     N/A     34  30  86 NE5       30.41R WCI  30
FLEMING/MASON*   N/A     35  31  83 NE6       30.42R WCI  30
DANVILLE*        N/A     32  28  86 CALM      30.40R
LEXINGTON        N/A     35  26  69 N7        30.40R WCI  29
FRANKFORT        N/A     35  25  66 N3        30.40R
LOUISVILLE       N/A     37  23  56 N7        30.43R WCI  32
GLASGOW*         N/A     32  28  86 E3        30.39R
BOWLING GREEN    N/A     33  29  85 CALM      30.40R
$$

KYZ091>093-OHZ055-061-077-WVZ005-015-034-035-042-201200
...SOUTHERN OHIO/WEST VIRGINIA...

CITY           SKY/WX    TMP DP  RH WIND       PRES   REMARKS
COVINGTON        N/A     33  27  78 N9        30.42R WCI  25
COLUMBUS         N/A     31  25  78 CALM      30.41R
DAYTON           N/A     30  27  88 NW6       30.43R WCI  24
WILMINGTON       N/A     31  28  89 N5        30.41R WCI  26
HUNTINGTON       N/A    N/A N/A N/A MISG      30.40R
CHARLESTON       N/A     30  27  88 CALM      30.38R
BECKLEY          N/A     31  21  66 N8        30.31R WCI  23
BLUEFIELD        N/A     30  24  78 NW5       30.31R WCI  25
LOGAN CO APT*    N/A     36  25  64 CALM      30.35R
$$

VAZ002-007-008-TNZ017-027-036-066-071-201200
...SOUTHWEST VIRGINIA/EAST TENNESSEE...

CITY           SKY/WX    TMP DP  RH WIND       PRES   REMARKS
WISE*            N/A     34  30  86 NW3       30.34R
JONESVILLE*      N/A     28  28 100 CALM      30.40R
ABINGDON*        N/A     32  29  91 CALM      30.34R
BRISTOL          N/A     29  28  96 CALM      30.37R
MORRISTOWN*    SUNNY     32  30  93 NE3       30.36R
SEVIERVILLE*   SUNNY     30  28  93 CALM      30.36S
KNOXVILLE        N/A     36  30  79 N7        30.34S WCI  30
LAFOLLETTE*    SUNNY     28  28 100 CALM      30.41R
OAK RIDGE        N/A     34  32  92 CALM      30.39R
CROSSVILLE       N/A     33  27  78 NE5       30.33S WCI  29
NASHVILLE        N/A     36  32  85 CALM      30.38R
$$

...KEY TO REMARKS...
VSB - VISIBILITY IN MILES
WCI - WIND CHILL INDEX
HX  - HEAT INDEX

$$



USA.gov is the U.S. government's official web portal to all federal, state and local government web resources and services.